,,,PA_Meas_PMT16A,,PR_Meas_QMR101_102,,RH_Meas_QMH101,,SR_Meas_QMS101,,TA_Meas_QMH101,,GenWind,,GenWind,
date,time,status,PA,status,PR,status,RH,status,SR,status,TA,status,DirAvg,status,SpdAvg,
2010-10-29, 00:00:04,VALID,999.532,VALID,0,VALID,92.059,VALID,0,VALID,23.797,VALID,99,VALID,0.774219,
2010-10-29, 00:01:04,VALID,999.532,VALID,0,VALID,91.9522,VALID,0,VALID,23.797,VALID,101,VALID,0.769922,
2010-10-29, 00:02:04,VALID,999.524,VALID,0,VALID,91.8606,VALID,0,VALID,23.8378,VALID,101,VALID,0.550781,
2010-10-29, 00:03:04,VALID,999.485,VALID,0,VALID,91.7462,VALID,0,VALID,23.8378,VALID,101,VALID,0.615625,
2010-10-29, 00:04:04,VALID,999.492,VALID,0,VALID,91.7004,VALID,0,VALID,23.8165,VALID,101,VALID,0.763672,
2010-10-29, 00:05:04,VALID,999.487,VALID,0,VALID,91.6623,VALID,0,VALID,23.8183,VALID,101,VALID,0.498047,
2010-10-29, 00:06:04,VALID,999.472,VALID,0,VALID,91.6012,VALID,0,VALID,23.8165,VALID,101,VALID,0.424219,
2010-10-29, 00:07:04,VALID,999.472,VALID,0,VALID,91.5707,VALID,0,VALID,23.8165,VALID,101,VALID,0.344531,
2010-10-29, 00:08:04,VALID,999.451,VALID,0,VALID,91.5554,VALID,0,VALID,23.8165,VALID,101,VALID,0.414063,
2010-10-29, 00:09:04,VALID,999.443,VALID,0,VALID,91.5249,VALID,0,VALID,23.797,VALID,101,VALID,0.466016,
2010-10-29, 00:10:04,VALID,999.454,VALID,0,VALID,91.502,VALID,0,VALID,23.8183,VALID,91,VALID,0.458984,
2010-10-29, 00:11:04,VALID,999.475,VALID,0,VALID,91.4639,VALID,0,VALID,23.797,VALID,91,VALID,0.501953,
2010-10-29, 00:12:04,VALID,999.487,VALID,0,VALID,91.4715,VALID,0,VALID,23.797,VALID,84,VALID,0.661719,
2010-10-29, 00:13:04,VALID,999.497,VALID,0,VALID,91.4257,VALID,0,VALID,23.797,VALID,61,VALID,0.930078,
2010-10-29, 00:14:04,VALID,999.515,VALID,0,VALID,91.3494,VALID,0,VALID,23.7775,VALID,70,VALID,0.894141,
2010-10-29, 00:15:04,VALID,999.543,VALID,0,VALID,91.2274,VALID,0,VALID,23.7775,VALID,75,VALID,1.12656,
2010-10-29, 00:16:04,VALID,999.518,VALID,0,VALID,91.1053,VALID,0,VALID,23.7775,VALID,53,VALID,0.737109,
2010-10-29, 00:17:04,VALID,999.521,VALID,0,VALID,91.0366,VALID,0,VALID,23.797,VALID,51,VALID,0.771484,
2010-10-29, 00:18:04,VALID,999.484,VALID,0,VALID,90.968,VALID,0,VALID,23.8183,VALID,56,VALID,0.552734,
2010-10-29, 00:19:04,VALID,999.484,VALID,0,VALID,90.9451,VALID,0,VALID,23.7775,VALID,56,VALID,0.240234,
2010-10-29, 00:20:04,VALID,999.51,VALID,0,VALID,90.9298,VALID,0,VALID,23.7988,VALID,56,VALID,0.35625,
2010-10-29, 00:21:04,VALID,999.514,VALID,0,VALID,90.9146,VALID,0,VALID,23.7579,VALID,56,VALID,0.415625,
2010-10-29, 00:22:04,VALID,999.502,VALID,0,VALID,90.8917,VALID,0,VALID,23.7384,VALID,56,VALID,0.323438,
2010-10-29, 00:23:04,VALID,999.506,VALID,0,VALID,90.9146,VALID,0,VALID,23.7597,VALID,56,VALID,0.490625,
2010-10-29, 00:24:04,VALID,999.499,VALID,0,VALID,90.9374,VALID,0,VALID,23.742,VALID,55,VALID,0.801953,
2010-10-29, 00:25:04,VALID,999.461,VALID,0,VALID,90.9756,VALID,0,VALID,23.742,VALID,39,VALID,0.811328,
2010-10-29, 00:26:04,VALID,999.473,VALID,0,VALID,90.9527,VALID,0,VALID,23.7012,VALID,32,VALID,0.644531,
2010-10-29, 00:27:04,VALID,999.483,VALID,0,VALID,90.9756,VALID,0,VALID,23.7012,VALID,30,VALID,0.815234,
2010-10-29, 00:28:04,VALID,999.468,VALID,0,VALID,91.1358,VALID,0,VALID,23.742,VALID,30,VALID,0.588281,
2010-10-29, 00:29:04,VALID,999.465,VALID,0,VALID,91.3037,VALID,0,VALID,23.7207,VALID,30,VALID,0.501172,
2010-10-29, 00:30:04,VALID,999.441,VALID,0,VALID,91.4257,VALID,0,VALID,23.7207,VALID,30,VALID,0.523828,
2010-10-29, 00:31:04,VALID,999.455,VALID,0,VALID,91.586,VALID,0,VALID,23.7207,VALID,30,VALID,0.260547,
2010-10-29, 00:32:04,VALID,999.472,VALID,0,VALID,91.7233,VALID,0,VALID,23.742,VALID,30,VALID,0.0527344,
2010-10-29, 00:33:04,VALID,999.433,VALID,0,VALID,91.7843,VALID,0,VALID,23.7012,VALID,30,VALID,0,
2010-10-29, 00:34:04,VALID,999.4,VALID,0,VALID,91.8683,VALID,0,VALID,23.6817,VALID,30,VALID,0,
2010-10-29, 00:35:04,VALID,999.376,VALID,0,VALID,91.9598,VALID,0,VALID,23.703,VALID,30,VALID,0,
2010-10-29, 00:36:04,VALID,999.348,VALID,0,VALID,92.0361,VALID,0,VALID,23.7012,VALID,30,VALID,0,
2010-10-29, 00:37:04,VALID,999.327,VALID,0,VALID,92.1048,VALID,0,VALID,23.7012,VALID,30,VALID,0,
2010-10-29, 00:38:04,VALID,999.318,VALID,0,VALID,92.1811,VALID,0,VALID,23.7012,VALID,30,VALID,0,
2010-10-29, 00:39:04,VALID,999.315,VALID,0,VALID,92.2268,VALID,0,VALID,23.7207,VALID,30,VALID,0,
2010-10-29, 00:40:04,VALID,999.284,VALID,0,VALID,92.2574,VALID,0,VALID,23.6994,VALID,30,VALID,0,
2010-10-29, 00:41:04,VALID,999.265,VALID,0,VALID,92.3031,VALID,0,VALID,23.6799,VALID,30,VALID,0,
2010-10-29, 00:42:04,VALID,999.222,VALID,0,VALID,92.3566,VALID,0,VALID,23.7207,VALID,30,VALID,0,
2010-10-29, 00:43:04,VALID,999.196,VALID,0,VALID,92.4023,VALID,0,VALID,23.7207,VALID,30,VALID,0,
2010-10-29, 00:44:04,VALID,999.181,VALID,0,VALID,92.4405,VALID,0,VALID,23.7207,VALID,30,VALID,0,
2010-10-29, 00:45:04,VALID,999.189,VALID,0,VALID,92.4863,VALID,0,VALID,23.6994,VALID,30,VALID,0.708594,
2010-10-29, 00:46:04,VALID,999.147,VALID,0,VALID,92.4939,VALID,0,VALID,23.7207,VALID,30,VALID,0.816016,
2010-10-29, 00:47:04,VALID,999.165,VALID,0,VALID,92.4939,VALID,0,VALID,23.6994,VALID,30,VALID,0.790625,
2010-10-29, 00:48:04,VALID,999.178,VALID,0,VALID,92.5091,VALID,0,VALID,23.7207,VALID,30,VALID,0.272266,
2010-10-29, 00:49:04,VALID,999.142,VALID,0,VALID,92.5091,VALID,0,VALID,23.7012,VALID,30,VALID,0,
2010-10-29, 00:50:04,VALID,999.127,VALID,0,VALID,92.5091,VALID,0,VALID,23.6799,VALID,30,VALID,0,
2010-10-29, 00:51:04,VALID,999.107,VALID,0,VALID,92.4786,VALID,0,VALID,23.6604,VALID,30,VALID,0,
2010-10-29, 00:52:04,VALID,999.076,VALID,0,VALID,92.471,VALID,0,VALID,23.6622,VALID,30,VALID,0,
2010-10-29, 00:53:04,VALID,999.056,VALID,0,VALID,92.4557,VALID,0,VALID,23.6622,VALID,30,VALID,0,
2010-10-29, 00:54:04,VALID,999.033,VALID,0,VALID,92.4481,VALID,0,VALID,23.6604,VALID,30,VALID,0,
2010-10-29, 00:55:04,VALID,998.983,VALID,0,VALID,92.4557,VALID,0,VALID,23.6799,VALID,30,VALID,0.273828,
2010-10-29, 00:56:04,VALID,998.984,VALID,0,VALID,92.4634,VALID,0,VALID,23.6604,VALID,30,VALID,0.26875,
2010-10-29, 00:57:04,VALID,998.982,VALID,0,VALID,92.4481,VALID,0,VALID,23.7012,VALID,30,VALID,0.373828,
2010-10-29, 00:58:04,VALID,999.01,VALID,0,VALID,92.4557,VALID,0,VALID,23.6994,VALID,30,VALID,0.364453,
2010-10-29, 00:59:04,VALID,999.014,VALID,0,VALID,92.4252,VALID,0,VALID,23.6994,VALID,30,VALID,0.385938,
2010-10-29, 01:00:04,VALID,999.007,VALID,0,VALID,92.4023,VALID,0,VALID,23.7207,VALID,30,VALID,0.237109,
2010-10-29, 01:01:04,VALID,999.022,VALID,0,VALID,92.3794,VALID,0,VALID,23.7207,VALID,30,VALID,0,
2010-10-29, 01:02:04,VALID,999.012,VALID,0,VALID,92.3489,VALID,0,VALID,23.7207,VALID,30,VALID,0.0804688,
2010-10-29, 01:03:04,VALID,999.004,VALID,0,VALID,92.3413,VALID,0,VALID,23.7012,VALID,30,VALID,0,
2010-10-29, 01:04:04,VALID,998.963,VALID,0,VALID,92.2955,VALID,0,VALID,23.6799,VALID,30,VALID,0,
2010-10-29, 01:05:04,VALID,998.954,VALID,0,VALID,92.2345,VALID,0,VALID,23.7012,VALID,30,VALID,0,
2010-10-29, 01:06:04,VALID,998.949,VALID,0,VALID,92.2116,VALID,0,VALID,23.703,VALID,30,VALID,0,
2010-10-29, 01:07:04,VALID,998.909,VALID,0,VALID,92.1353,VALID,0,VALID,23.6604,VALID,30,VALID,0.246875,
2010-10-29, 01:08:04,VALID,998.907,VALID,0,VALID,92.0361,VALID,0,VALID,23.7012,VALID,99,VALID,0.708203,
2010-10-29, 01:09:04,VALID,998.88,VALID,0,VALID,91.8988,VALID,0,VALID,23.7207,VALID,99,VALID,0.807422,
2010-10-29, 01:10:04,VALID,998.887,VALID,0,VALID,91.7385,VALID,0,VALID,23.7597,VALID,99,VALID,0.730078,
2010-10-29, 01:11:04,VALID,998.841,VALID,0,VALID,91.4715,VALID,0,VALID,23.7579,VALID,99,VALID,0.880469,
2010-10-29, 01:12:04,VALID,998.85,VALID,0,VALID,91.1968,VALID,0,VALID,23.8183,VALID,99,VALID,0.709375,
2010-10-29, 01:13:04,VALID,998.802,VALID,0,VALID,90.8993,VALID,0,VALID,23.8165,VALID,99,VALID,0.788672,
2010-10-29, 01:14:04,VALID,998.798,VALID,0,VALID,90.7314,VALID,0,VALID,23.8378,VALID,99,VALID,0.641016,
2010-10-29, 01:15:04,VALID,998.798,VALID,0,VALID,90.6399,VALID,0,VALID,23.8573,VALID,99,VALID,0.420312,
2010-10-29, 01:16:04,VALID,998.768,VALID,0,VALID,90.6094,VALID,0,VALID,23.8573,VALID,99,VALID,0.670703,
2010-10-29, 01:17:04,VALID,998.754,VALID,0,VALID,90.6017,VALID,0,VALID,23.836,VALID,99,VALID,0.70625,
2010-10-29, 01:18:04,VALID,998.725,VALID,0,VALID,90.6246,VALID,0,VALID,23.8555,VALID,99,VALID,0.678516,
2010-10-29, 01:19:04,VALID,998.711,VALID,0,VALID,90.617,VALID,0,VALID,23.8573,VALID,99,VALID,0.525,
2010-10-29, 01:20:04,VALID,998.714,VALID,0,VALID,90.6475,VALID,0,VALID,23.8573,VALID,99,VALID,0.498437,
2010-10-29, 01:21:04,VALID,998.701,VALID,0,VALID,90.678,VALID,0,VALID,23.8768,VALID,99,VALID,0.354688,
2010-10-29, 01:22:04,VALID,998.678,VALID,0,VALID,90.7238,VALID,0,VALID,23.8555,VALID,99,VALID,0.504297,
2010-10-29, 01:23:04,VALID,998.664,VALID,0,VALID,90.7238,VALID,0,VALID,23.8573,VALID,99,VALID,0.286328,
2010-10-29, 01:24:04,VALID,998.623,VALID,0,VALID,90.7467,VALID,0,VALID,23.8768,VALID,99,VALID,0.438672,
2010-10-29, 01:25:04,VALID,998.585,VALID,0,VALID,90.7772,VALID,0,VALID,23.8573,VALID,99,VALID,0.180078,
2010-10-29, 01:26:04,VALID,998.597,VALID,0,VALID,90.762,VALID,0,VALID,23.8378,VALID,99,VALID,0.125391,
2010-10-29, 01:27:04,VALID,998.593,VALID,0,VALID,90.7696,VALID,0,VALID,23.8165,VALID,99,VALID,0.183203,
2010-10-29, 01:28:04,VALID,998.562,VALID,0,VALID,90.823,VALID,0,VALID,23.836,VALID,99,VALID,0.212891,
2010-10-29, 01:29:04,VALID,998.568,VALID,0,VALID,90.8459,VALID,0,VALID,23.8378,VALID,99,VALID,0.171875,
2010-10-29, 01:30:04,VALID,998.53,VALID,0,VALID,90.8383,VALID,0,VALID,23.8378,VALID,99,VALID,0.224219,
2010-10-29, 01:31:04,VALID,998.541,VALID,0,VALID,90.8764,VALID,0,VALID,23.8378,VALID,99,VALID,0.414844,
2010-10-29, 01:32:04,VALID,998.528,VALID,0,VALID,90.8764,VALID,0,VALID,23.8165,VALID,99,VALID,0.530078,
2010-10-29, 01:33:04,VALID,998.554,VALID,0,VALID,90.9069,VALID,0,VALID,23.797,VALID,99,VALID,0.665234,
2010-10-29, 01:34:04,VALID,998.517,VALID,0,VALID,90.8917,VALID,0,VALID,23.7775,VALID,98,VALID,0.546484,
2010-10-29, 01:35:04,VALID,998.475,VALID,0,VALID,90.8535,VALID,0,VALID,23.7775,VALID,99,VALID,0.570703,
2010-10-29, 01:36:04,VALID,998.474,VALID,0,VALID,90.8001,VALID,0,VALID,23.7775,VALID,99,VALID,0.386328,
2010-10-29, 01:37:04,VALID,998.462,VALID,0,VALID,90.7925,VALID,0,VALID,23.797,VALID,99,VALID,0.537891,
2010-10-29, 01:38:04,VALID,998.438,VALID,0,VALID,90.7772,VALID,0,VALID,23.7988,VALID,99,VALID,0.525781,
2010-10-29, 01:39:04,VALID,998.399,VALID,0,VALID,90.8306,VALID,0,VALID,23.7988,VALID,99,VALID,0.307813,
2010-10-29, 01:40:04,VALID,998.386,VALID,0,VALID,90.8383,VALID,0,VALID,23.7988,VALID,99,VALID,0.553125,
2010-10-29, 01:41:04,VALID,998.39,VALID,0,VALID,90.8306,VALID,0,VALID,23.7988,VALID,99,VALID,0.373437,
2010-10-29, 01:42:04,VALID,998.374,VALID,0,VALID,90.8383,VALID,0,VALID,23.7988,VALID,99,VALID,0.230859,
2010-10-29, 01:43:04,VALID,998.386,VALID,0,VALID,90.884,VALID,0,VALID,23.7988,VALID,99,VALID,0.258594,
2010-10-29, 01:44:04,VALID,998.347,VALID,0,VALID,90.9222,VALID,0,VALID,23.8201,VALID,99,VALID,0.420312,
2010-10-29, 01:45:04,VALID,998.362,VALID,0,VALID,90.9909,VALID,0,VALID,23.7793,VALID,99,VALID,0.4875,
2010-10-29, 01:46:04,VALID,998.338,VALID,0,VALID,91.0595,VALID,0,VALID,23.7402,VALID,99,VALID,0.164453,
2010-10-29, 01:47:04,VALID,998.328,VALID,0,VALID,91.1358,VALID,0,VALID,23.7597,VALID,99,VALID,0.00273437,
2010-10-29, 01:48:04,VALID,998.365,VALID,0,VALID,91.2045,VALID,0,VALID,23.7616,VALID,99,VALID,0.416406,
2010-10-29, 01:49:04,VALID,998.359,VALID,0,VALID,91.2503,VALID,0,VALID,23.7616,VALID,99,VALID,0.358984,
2010-10-29, 01:50:04,VALID,998.404,VALID,0,VALID,91.2884,VALID,0,VALID,23.7207,VALID,99,VALID,0.405469,
2010-10-29, 01:51:04,VALID,998.411,VALID,0,VALID,91.3037,VALID,0,VALID,23.6817,VALID,99,VALID,0.305078,
2010-10-29, 01:52:04,VALID,998.422,VALID,0,VALID,91.3647,VALID,0,VALID,23.6622,VALID,99,VALID,0.607813,
2010-10-29, 01:53:04,VALID,998.443,VALID,0,VALID,91.4639,VALID,0,VALID,23.6622,VALID,52,VALID,0.799609,
2010-10-29, 01:54:04,VALID,998.419,VALID,0,VALID,91.5173,VALID,0,VALID,23.6817,VALID,52,VALID,0.813672,
2010-10-29, 01:55:04,VALID,998.409,VALID,0,VALID,91.5326,VALID,0,VALID,23.6622,VALID,52,VALID,0.733203,
2010-10-29, 01:56:04,VALID,998.399,VALID,0,VALID,91.5478,VALID,0,VALID,23.6604,VALID,49,VALID,0.607422,
2010-10-29, 01:57:04,VALID,998.4,VALID,0,VALID,91.5554,VALID,0.112286,VALID,23.6604,VALID,49,VALID,0.667969,
2010-10-29, 01:58:04,VALID,998.362,VALID,0,VALID,91.5554,VALID,0,VALID,23.6604,VALID,49,VALID,0.520703,
2010-10-29, 01:59:04,VALID,998.365,VALID,0,VALID,91.5707,VALID,0.112286,VALID,23.6604,VALID,48,VALID,0.7,
2010-10-29, 02:00:04,VALID,998.369,VALID,0,VALID,91.6088,VALID,0,VALID,23.6409,VALID,48,VALID,0.739062,
2010-10-29, 02:01:04,VALID,998.346,VALID,0,VALID,91.6165,VALID,0,VALID,23.6214,VALID,38,VALID,0.704297,
2010-10-29, 02:02:04,VALID,998.33,VALID,0,VALID,91.6928,VALID,0,VALID,23.6409,VALID,37,VALID,0.520312,
2010-10-29, 02:03:04,VALID,998.329,VALID,0,VALID,91.7385,VALID,0,VALID,23.6409,VALID,37,VALID,0.291406,
2010-10-29, 02:04:04,VALID,998.315,VALID,0,VALID,91.7462,VALID,0,VALID,23.6214,VALID,37,VALID,0.210938,
2010-10-29, 02:05:04,VALID,998.276,VALID,0,VALID,91.792,VALID,0,VALID,23.6409,VALID,37,VALID,0.0804688,
2010-10-29, 02:06:04,VALID,998.281,VALID,0,VALID,91.8454,VALID,0,VALID,23.6214,VALID,37,VALID,0.0371094,
2010-10-29, 02:07:04,VALID,998.256,VALID,0,VALID,91.9369,VALID,0,VALID,23.6409,VALID,37,VALID,0.05,
2010-10-29, 02:08:04,VALID,998.232,VALID,0,VALID,92.0056,VALID,0,VALID,23.6409,VALID,37,VALID,0,
2010-10-29, 02:09:04,VALID,998.185,VALID,0,VALID,92.0666,VALID,0.112286,VALID,23.6409,VALID,37,VALID,0,
2010-10-29, 02:10:04,VALID,998.185,VALID,0,VALID,92.0971,VALID,0,VALID,23.6214,VALID,37,VALID,0,
2010-10-29, 02:11:04,VALID,998.16,VALID,0,VALID,92.1277,VALID,0,VALID,23.6214,VALID,37,VALID,0,
2010-10-29, 02:12:04,VALID,998.121,VALID,0,VALID,92.1658,VALID,0.112286,VALID,23.6214,VALID,37,VALID,0,
2010-10-29, 02:13:04,VALID,998.145,VALID,0,VALID,92.2192,VALID,0.112286,VALID,23.6409,VALID,37,VALID,0.196484,
2010-10-29, 02:14:04,VALID,998.124,VALID,0,VALID,92.265,VALID,0,VALID,23.6409,VALID,37,VALID,0.352734,
2010-10-29, 02:15:04,VALID,998.125,VALID,0,VALID,92.2726,VALID,0.112286,VALID,23.6214,VALID,37,VALID,0.158203,
2010-10-29, 02:16:04,VALID,998.107,VALID,0,VALID,92.2726,VALID,0.112286,VALID,23.6409,VALID,37,VALID,0.0488281,
2010-10-29, 02:17:04,VALID,998.125,VALID,0,VALID,92.2497,VALID,0,VALID,23.6409,VALID,37,VALID,0,
2010-10-29, 02:18:04,VALID,998.111,VALID,0,VALID,92.2345,VALID,0,VALID,23.6214,VALID,37,VALID,0,
2010-10-29, 02:19:04,VALID,998.088,VALID,0,VALID,92.2574,VALID,0.112286,VALID,23.6409,VALID,37,VALID,0.0078125,
2010-10-29, 02:20:04,VALID,998.104,VALID,0,VALID,92.2726,VALID,0.112286,VALID,23.6409,VALID,37,VALID,0.235547,
2010-10-29, 02:21:04,VALID,998.085,VALID,0,VALID,92.2803,VALID,0.112286,VALID,23.6604,VALID,37,VALID,0.147266,
2010-10-29, 02:22:04,VALID,998.062,VALID,0,VALID,92.2726,VALID,0.112286,VALID,23.6409,VALID,37,VALID,0,
2010-10-29, 02:23:04,VALID,998.05,VALID,0,VALID,92.2803,VALID,0.112286,VALID,23.6409,VALID,37,VALID,0,
2010-10-29, 02:24:04,VALID,998.04,VALID,0,VALID,92.2803,VALID,0,VALID,23.6427,VALID,37,VALID,0,
2010-10-29, 02:25:04,VALID,998.046,VALID,0,VALID,92.3108,VALID,0,VALID,23.6427,VALID,37,VALID,0,
2010-10-29, 02:26:04,VALID,998.055,VALID,0,VALID,92.2726,VALID,0,VALID,23.6232,VALID,37,VALID,0.279297,
2010-10-29, 02:27:04,VALID,998.042,VALID,0,VALID,92.2726,VALID,0,VALID,23.6036,VALID,37,VALID,0.438281,
2010-10-29, 02:28:04,VALID,998.05,VALID,0,VALID,92.2955,VALID,0,VALID,23.6036,VALID,37,VALID,0.355078,
2010-10-29, 02:29:04,VALID,998.048,VALID,0,VALID,92.3108,VALID,0,VALID,23.5628,VALID,37,VALID,0.394922,
2010-10-29, 02:30:04,VALID,998.048,VALID,0,VALID,92.3413,VALID,0,VALID,23.5433,VALID,37,VALID,0.533984,
2010-10-29, 02:31:04,VALID,998.068,VALID,0,VALID,92.3566,VALID,0,VALID,23.5451,VALID,37,VALID,0.497656,
2010-10-29, 02:32:04,VALID,998.051,VALID,0,VALID,92.3337,VALID,0,VALID,23.5256,VALID,37,VALID,0.499609,
2010-10-29, 02:33:04,VALID,998.073,VALID,0,VALID,92.326,VALID,0,VALID,23.4866,VALID,37,VALID,0.34375,
2010-10-29, 02:34:04,VALID,998.099,VALID,0,VALID,92.3031,VALID,0,VALID,23.4671,VALID,37,VALID,0.280469,
2010-10-29, 02:35:04,VALID,998.098,VALID,0,VALID,92.3031,VALID,0,VALID,23.428,VALID,37,VALID,0.280469,
2010-10-29, 02:36:04,VALID,998.125,VALID,0,VALID,92.3184,VALID,0,VALID,23.428,VALID,37,VALID,0.322266,
2010-10-29, 02:37:04,VALID,998.153,VALID,0,VALID,92.3489,VALID,0,VALID,23.428,VALID,37,VALID,0.378125,
2010-10-29, 02:38:04,VALID,998.171,VALID,0,VALID,92.4023,VALID,0,VALID,23.4085,VALID,37,VALID,0.412109,
2010-10-29, 02:39:04,VALID,998.184,VALID,0,VALID,92.4252,VALID,0,VALID,23.3872,VALID,37,VALID,0.235938,
2010-10-29, 02:40:04,VALID,998.198,VALID,0,VALID,92.4557,VALID,0,VALID,23.3677,VALID,37,VALID,0.467969,
2010-10-29, 02:41:04,VALID,998.235,VALID,0,VALID,92.4634,VALID,0,VALID,23.3677,VALID,37,VALID,0.328906,
2010-10-29, 02:42:04,VALID,998.261,VALID,0,VALID,92.5015,VALID,0,VALID,23.3482,VALID,37,VALID,0.476172,
2010-10-29, 02:43:04,VALID,998.268,VALID,0,VALID,92.532,VALID,0,VALID,23.35,VALID,37,VALID,0.509375,
2010-10-29, 02:44:04,VALID,998.289,VALID,0,VALID,92.5626,VALID,0,VALID,23.3482,VALID,37,VALID,0.441016,
2010-10-29, 02:45:04,VALID,998.275,VALID,0,VALID,92.5854,VALID,0,VALID,23.3287,VALID,37,VALID,0.408594,
2010-10-29, 02:46:04,VALID,998.275,VALID,0,VALID,92.616,VALID,0,VALID,23.3287,VALID,37,VALID,0.559766,
2010-10-29, 02:47:04,VALID,998.293,VALID,0,VALID,92.6312,VALID,0,VALID,23.3482,VALID,37,VALID,0.28125,
2010-10-29, 02:48:04,VALID,998.296,VALID,0,VALID,92.6617,VALID,0,VALID,23.3287,VALID,37,VALID,0.173828,
2010-10-29, 02:49:04,VALID,998.241,VALID,0,VALID,92.6846,VALID,0,VALID,23.3305,VALID,37,VALID,0.203906,
2010-10-29, 02:50:04,VALID,998.303,VALID,0,VALID,92.6846,VALID,0,VALID,23.3092,VALID,37,VALID,0.278906,
2010-10-29, 02:51:04,VALID,998.285,VALID,0,VALID,92.7151,VALID,0,VALID,23.3092,VALID,37,VALID,0.341016,
2010-10-29, 02:52:04,VALID,998.262,VALID,0,VALID,92.738,VALID,0,VALID,23.3287,VALID,37,VALID,0.257422,
2010-10-29, 02:53:04,VALID,998.252,VALID,0,VALID,92.7685,VALID,0,VALID,23.35,VALID,37,VALID,0.214453,
2010-10-29, 02:54:04,VALID,998.269,VALID,0,VALID,92.7685,VALID,0,VALID,23.3287,VALID,37,VALID,0,
2010-10-29, 02:55:04,VALID,998.256,VALID,0,VALID,92.7991,VALID,0,VALID,23.3287,VALID,37,VALID,0,
2010-10-29, 02:56:04,VALID,998.224,VALID,0,VALID,92.7838,VALID,0,VALID,23.3092,VALID,37,VALID,0.273438,
2010-10-29, 02:57:04,VALID,998.244,VALID,0,VALID,92.822,VALID,0,VALID,23.3287,VALID,37,VALID,0.212891,
2010-10-29, 02:58:04,VALID,998.222,VALID,0,VALID,92.8525,VALID,0,VALID,23.3482,VALID,37,VALID,0.192578,
2010-10-29, 02:59:04,VALID,998.239,VALID,0,VALID,92.8754,VALID,0,VALID,23.3482,VALID,37,VALID,0.167969,
2010-10-29, 03:00:04,VALID,998.216,VALID,0,VALID,92.883,VALID,0,VALID,23.3677,VALID,37,VALID,0.148438,
2010-10-29, 03:01:04,VALID,998.208,VALID,0,VALID,92.8983,VALID,0,VALID,23.3482,VALID,37,VALID,0,
2010-10-29, 03:02:04,VALID,998.264,VALID,0,VALID,92.9135,VALID,0,VALID,23.3482,VALID,37,VALID,0,
2010-10-29, 03:03:04,VALID,998.238,VALID,0,VALID,92.9135,VALID,0,VALID,23.35,VALID,37,VALID,0,
2010-10-29, 03:04:04,VALID,998.262,VALID,0,VALID,92.9135,VALID,0,VALID,23.3287,VALID,37,VALID,0,
2010-10-29, 03:05:04,VALID,998.239,VALID,0,VALID,92.8983,VALID,0,VALID,23.3305,VALID,37,VALID,0,
2010-10-29, 03:06:04,VALID,998.236,VALID,0,VALID,92.8906,VALID,0,VALID,23.2897,VALID,37,VALID,0,
2010-10-29, 03:07:04,VALID,998.263,VALID,0,VALID,92.9211,VALID,0,VALID,23.3305,VALID,37,VALID,0.425391,
2010-10-29, 03:08:04,VALID,998.271,VALID,0,VALID,92.9288,VALID,0,VALID,23.35,VALID,43,VALID,0.535547,
2010-10-29, 03:09:04,VALID,998.259,VALID,0,VALID,92.9135,VALID,0,VALID,23.3287,VALID,156,VALID,0.852344,
2010-10-29, 03:10:04,VALID,998.268,VALID,0,VALID,92.8983,VALID,0,VALID,23.3482,VALID,156,VALID,0.828516,
2010-10-29, 03:11:04,VALID,998.247,VALID,0,VALID,92.9211,VALID,0,VALID,23.3872,VALID,158,VALID,0.883203,
2010-10-29, 03:12:04,VALID,998.245,VALID,0,VALID,92.8677,VALID,0,VALID,23.3872,VALID,158,VALID,1.11484,
2010-10-29, 03:13:04,VALID,998.241,VALID,0,VALID,92.8296,VALID,0,VALID,23.428,VALID,160,VALID,0.985937,
2010-10-29, 03:14:04,VALID,998.292,VALID,0,VALID,92.7991,VALID,0,VALID,23.4263,VALID,160,VALID,0.90625,
2010-10-29, 03:15:04,VALID,998.27,VALID,0,VALID,92.7304,VALID,0,VALID,23.4458,VALID,160,VALID,0.833203,
2010-10-29, 03:16:04,VALID,998.265,VALID,0,VALID,92.6312,VALID,0,VALID,23.4475,VALID,155,VALID,0.825391,
2010-10-29, 03:17:04,VALID,998.27,VALID,0,VALID,92.5168,VALID,0,VALID,23.3872,VALID,146,VALID,0.816406,
2010-10-29, 03:18:04,VALID,998.3,VALID,0,VALID,92.3718,VALID,0,VALID,23.389,VALID,146,VALID,0.666797,
2010-10-29, 03:19:04,VALID,998.276,VALID,0,VALID,92.2345,VALID,0,VALID,23.3287,VALID,146,VALID,0.550391,
2010-10-29, 03:20:04,VALID,998.278,VALID,0,VALID,92.1429,VALID,0.112286,VALID,23.2897,VALID,146,VALID,0.470703,
2010-10-29, 03:21:04,VALID,998.284,VALID,0,VALID,92.1048,VALID,0,VALID,23.2897,VALID,146,VALID,0.257422,
2010-10-29, 03:22:04,VALID,998.234,VALID,0,VALID,92.1124,VALID,0,VALID,23.2702,VALID,146,VALID,0.214062,
2010-10-29, 03:23:04,VALID,998.257,VALID,0,VALID,92.1124,VALID,0,VALID,23.2312,VALID,146,VALID,0,
2010-10-29, 03:24:04,VALID,998.276,VALID,0,VALID,92.1048,VALID,0,VALID,23.2347,VALID,146,VALID,0,
2010-10-29, 03:25:04,VALID,998.261,VALID,0,VALID,92.1582,VALID,0,VALID,23.2134,VALID,146,VALID,0.131641,
2010-10-29, 03:26:04,VALID,998.297,VALID,0,VALID,92.2192,VALID,0,VALID,23.2134,VALID,146,VALID,0.139062,
2010-10-29, 03:27:04,VALID,998.287,VALID,0,VALID,92.2955,VALID,0,VALID,23.2329,VALID,146,VALID,0.233594,
2010-10-29, 03:28:04,VALID,998.277,VALID,0,VALID,92.3871,VALID,0,VALID,23.2719,VALID,146,VALID,0.275,
2010-10-29, 03:29:04,VALID,998.278,VALID,0,VALID,92.4481,VALID,0,VALID,23.2915,VALID,146,VALID,0.0210938,
2010-10-29, 03:30:04,VALID,998.282,VALID,0,VALID,92.4939,VALID,0,VALID,23.311,VALID,146,VALID,0,
2010-10-29, 03:31:04,VALID,998.294,VALID,0,VALID,92.5168,VALID,0,VALID,23.2719,VALID,146,VALID,0,
2010-10-29, 03:32:04,VALID,998.301,VALID,0,VALID,92.5244,VALID,0,VALID,23.2719,VALID,146,VALID,0,
2010-10-29, 03:33:04,VALID,998.302,VALID,0,VALID,92.5397,VALID,0,VALID,23.2932,VALID,146,VALID,0,
2010-10-29, 03:34:04,VALID,998.329,VALID,0,VALID,92.5626,VALID,0,VALID,23.2915,VALID,146,VALID,0.116406,
2010-10-29, 03:35:04,VALID,998.331,VALID,0,VALID,92.5854,VALID,0,VALID,23.2915,VALID,146,VALID,0.187109,
2010-10-29, 03:36:04,VALID,998.359,VALID,0,VALID,92.5702,VALID,0,VALID,23.2915,VALID,146,VALID,0,
2010-10-29, 03:37:04,VALID,998.367,VALID,0,VALID,92.5778,VALID,0,VALID,23.2915,VALID,146,VALID,0,
2010-10-29, 03:38:04,VALID,998.416,VALID,0,VALID,92.5473,VALID,0,VALID,23.2932,VALID,146,VALID,0,
2010-10-29, 03:39:04,VALID,998.435,VALID,0,VALID,92.5397,VALID,0,VALID,23.2719,VALID,146,VALID,0.240234,
2010-10-29, 03:40:04,VALID,998.465,VALID,0,VALID,92.5549,VALID,0,VALID,23.2312,VALID,146,VALID,0.291797,
2010-10-29, 03:41:04,VALID,998.494,VALID,0,VALID,92.532,VALID,0,VALID,23.2329,VALID,146,VALID,0.400391,
2010-10-29, 03:42:04,VALID,998.502,VALID,0,VALID,92.4939,VALID,0,VALID,23.1726,VALID,146,VALID,0.221484,
2010-10-29, 03:43:04,VALID,998.495,VALID,0,VALID,92.4786,VALID,0,VALID,23.1531,VALID,146,VALID,0.583984,
2010-10-29, 03:44:04,VALID,998.494,VALID,0,VALID,92.4481,VALID,0,VALID,23.1141,VALID,146,VALID,0.763672,
2010-10-29, 03:45:04,VALID,998.522,VALID,0,VALID,92.3566,VALID,0,VALID,23.0946,VALID,146,VALID,0.644531,
2010-10-29, 03:46:04,VALID,998.563,VALID,0,VALID,92.2421,VALID,0,VALID,23.0556,VALID,146,VALID,0.402344,
2010-10-29, 03:47:04,VALID,998.601,VALID,0,VALID,92.1658,VALID,0,VALID,23.0769,VALID,93,VALID,0.776172,
2010-10-29, 03:48:04,VALID,998.633,VALID,0,VALID,92.1506,VALID,0,VALID,23.0769,VALID,72,VALID,1.10039,